Weather Roundup
Issued by NWS

Home | Current Version | Previous Version | Graphics & Text | Print | Product List | Glossary Off
Versions: 1 2 3 4 5 6 7 8 9 10 11 12 13 14 15 16 17 18 19 20 21 22 23 24 25 26 27 28 29 30 31 32 33 34 35 36 37 38 39 40 41 42 43 44 45 46 47 48 49 50

000
NZUS93 KARX 241859
HRRWXR

CURRENT HOURLY OBSERVATIONS ACROSS
MUCH OF THE UPPER MISSISSIPPI VALLEY
NATIONAL WEATHER SERVICE LA CROSSE WI
200 PM CDT SAT JUN 24 2017


...SOUTHEAST MINNESOTA...


CITY           SKY/WX    TMP DP  RH WIND       PRES   REMARKS
ROCHESTER      PTSUNNY   64  44  48 W15G23    30.05F
ROCHESTER/MAYO CLOUDY    64  40  42 NW14G23   30.04F
WINONA         PTSUNNY   66  43  42 NW14G20   30.03S
AUSTIN         PTSUNNY   66  43  42 W12G20    30.04F
ALBERT LEA     RAIN      63  43  48 SW9G16    30.06S
DODGE CENTER   MOSUNNY   64  45  48 NW10G18   30.04F
PRESTON        CLOUDY    62  43  50 W16G23    30.06S
OWATONNA       MIX PCPN  63  46  55 N8        30.04F
FARIBAULT      CLOUDY    64  45  48 W9        30.04F
$$

...ELSEWHERE IN MINNESOTA...


CITY           SKY/WX    TMP DP  RH WIND       PRES   REMARKS
MINNEAPOLIS    MOSUNNY   66  40  38 W23G35    30.00F
INTNL FALLS    CLOUDY    61  46  57 NW8G17    29.93S
DULUTH         CLOUDY    60  46  59 W12G20    29.94S
RED WING       CLOUDY    64  36  34 W13G23    30.01F
REDWOOD FALLS  MOSUNNY   67  44  43 W18G26    30.05S
MANKATO        NOT AVBL
WORTHINGTON    MOSUNNY   67  40  37 NW29G41   30.08S
FAIRMONT       CLOUDY    69  42  37 W23G35    30.04F
$$

...SOUTHWEST WISCONSIN...


CITY           SKY/WX    TMP DP  RH WIND       PRES   REMARKS
LA CROSSE      PTSUNNY   72  43  35 W15G25    30.01F
PRAIRIE DU CHI MOSUNNY   69  39  34 NW13G25   30.05S
BOSCOBEL       MOSUNNY   69  42  37 NW14G21   30.04S
LONE ROCK      MOSUNNY   68  45  43 W17G26    30.02S
PLATTEVILLE    MOSUNNY   69  44  40 W16G24    30.06R
FORT MC COY    PTSUNNY   65  45  48 W14G22    30.02S
MAUSTON-NEW LI MOCLDY    65  47  51 W13G24    29.99S
VIROQUA        FAIR      65  46  51 W14G22    30.04S
WIS DELLS      PTSUNNY   67  44  42 W13G22    29.99S
$$

...ELSEWHERE IN WISCONSIN...


CITY           SKY/WX    TMP DP  RH WIND       PRES   REMARKS
MILWAUKEE      PTSUNNY   72  40  31 W17G28    29.97S
MADISON        PTSUNNY   67  49  52 NW13G20   29.98F
GREEN BAY      CLOUDY    68  53  58 W17G25    29.92R
EAU CLAIRE     NOT AVBL
BLACK RVR FLS  MOCLDY    68  39  35 NW15G22   30.00S
MEDFORD        PTSUNNY   61  43  50 W16       29.95S
WAUSAU         PTSUNNY   64  42  44 W16       29.93S
WIS RAPIDS     PTSUNNY   66  43  43 W13G25    29.98S
MARSHFIELD     MOSUNNY   64  44  48 W18G26    29.97S
RICE LAKE      CLOUDY    64  40  41 W16       29.99S
$$

...NORTHEAST IOWA...


CITY           SKY/WX    TMP DP  RH WIND       PRES   REMARKS
WATERLOO       MOSUNNY   70  39  32 W16       30.08F
DUBUQUE        SUNNY     69  42  37 NW22G30   30.08R
DECORAH        PTSUNNY   66  43  42 VRB7G23   30.05S
MASON CITY     PTSUNNY   68  39  34 W15G28    30.07F
CHARLES CITY   MOSUNNY   68  43  40 W16G26    30.08F
OELWEIN        SUNNY     68  45  42 NW16G29   30.09F
$$

...ELSEWHERE IN IOWA...


CITY           SKY/WX    TMP DP  RH WIND       PRES   REMARKS
DES MOINES     PTSUNNY   75  41  29 W14       30.14S
IOWA CITY      SUNNY     74  42  31 NW14G23   30.12F
FORT DODGE     CLOUDY    72  43  35 W18G31    30.10F
MARSHALLTOWN   PTSUNNY   70  41  34 W14G21    30.10F
CEDAR RAPIDS   MOSUNNY   71  45  39 NW17G35   30.10F
$$

...NORTHERN ILLINOIS...


CITY           SKY/WX    TMP DP  RH WIND       PRES   REMARKS
CHICAGO-OHARE  PTSUNNY   74  47  38 W15G25    29.99S
CHICAGO-MIDWAY PTSUNNY   74  47  38 W21G26    29.99S
MOLINE         SUNNY     74  43  32 NW18G31   30.08F
ROCKFORD       PTSUNNY   73  48  41 W17G23    30.03S
PEORIA         SUNNY     73  45  36 W13G28    30.08S
$$

NOTE: "FAIR" INDICATES FEW OR NO CLOUDS BELOW 12,000 FEET WITH NO
SIGNIFICANT WEATHER AND/OR OBSTRUCTIONS TO VISIBILITY. WIND
SPEEDS ARE IN MILES-PER-HOUR.




USA.gov is the U.S. government's official web portal to all federal, state and local government web resources and services.